一网星座-0507星 (ONEWEB-0507 )

导读 | 豆包AI

ONEWEB-0507是英国OneWeb公司低轨卫星互联网星座的一员,于2022年10月22日发射入轨。OneWeb项目计划部署648颗近地轨道卫星,构建全球覆盖的高速低延迟卫星通信网络,为偏远地区、灾难场景及商业用户提供宽带连接服务。 该卫星单颗重量约147.5kg,运行在高度约1200km的近地轨道,配备Ku/Ka波段通信天线,依托电离推进系统调整轨道,是OneWeb完成全球组网部署的重要组成部分,助力公司打造全球第二大低轨卫星通信星座。

基本信息
目录编号:
54125
目录名称:
ONEWEB-0507
国际标识:
2022-138N
轨道中心:
EARTH
卫星名称:
一网星座-0507星
卫星全名:
一网星座-0507星 (ONEWEB-0507 )
卫星状态:
在轨 (已飞行1239 天)
发射日期:
2022-10-22 UTC
国别 :
英国 (GB)
星等 :
--
轨道信息
数据来源 国际轨道数据 AOE轨道数据
星历时间 2026-03-14T07:17:13+0800
6小时前
查看轨道信息
2026-03-13T01:00:00+0800
1天前
查看轨道信息
半长轴 7563.913km 7563.914km
偏心率 0.0001783 0.0001776
轨道倾角 87.922° 87.923°
近地点辐角 86.476° 100.009°
升交点赤经 323.952° 324.203°
平近点角 273.658° 28.007°
近地点 1184.427km 1184.433km
远地点 1187.125km 1187.121km
周期 109.114分钟 109.114分钟
每日圈数 13.197236 13.197235
详细信息
平衡模式:
三轴稳定
覆盖范围:
全球
运营商:
一网卫星公司
运营商所在国:
英国
制造商(研发单位):
一网卫星公司
制造商所在国:
英国
使用方式:
暂无
卫星简介
OneWeb卫星网络由648颗重约125公斤的微型卫星组成,运行在1200公里的轨道上。 每颗卫星都能够提供至少每秒8千兆位的吞吐量,以使用其高吞吐量的Ku频段有效载荷为家庭和移动平台提供互联网接入。该卫星仍在工作。
2D轨道图
3D轨道图
轨道高度分析图
轨道倾角分析图
轨道综合分析图
查看轨道综合分析图